Location: Newark
(44.2003°N, 3.2583°E)
Time: 13:20:41
(UTC+00:00)

OTV 5 (USA 277) - Pass Details

Date: 27 October 2019
Orbit: 310 x 324 km, 54.5° (Epoch: 17 October)

Event Time Altitude Azimuth Distance (km) Brightness Sun altitude
Rises 18:21:17 0° 206° (SSW) 2,047 ? -17.9°
Reaches altitude 10° 18:23:25 10° 192° (SSW) 1,223 ? -18.3°
Enters shadow 18:24:02 14° 183° (S) 1,013 ? -18.4°
